Wind_Speed
33 33 33 34 34 35 35 37 37 37 37 38 37 37 38 38 38 39 39 40 40 40 40 40 40 40 40 41 42 42 43 43 43 43 43 43 43 42 42 43 43 43 43
32 32 33 33 33 34 35 36 36 37 37 38 38 38 38 39 39 38 39 40 40 40 40 41 42 42 42 42 42 43 43 44 44 44 44 44 44 44 44 44 43 44 44
33 33 32 32 32 34 34 35 36 36 37 38 38 38 38 38 39 39 39 40 40 41 41 42 42 43 43 43 43 44 44 45 45 46 46 45 45 45 44 44 45 45 46
32 33 32 32 32 32 33 34 35 36 37 38 38 38 38 38 39 39 40 39 39 40 40 42 42 43 43 44 44 44 44 45 45 46 46 46 46 46 45 45 46 46 46
32 32 32 32 32 32 33 33 34 35 36 36 37 37 38 38 39 39 40 39 39 39 39 40 41 42 42 43 44 44 45 45 45 45 45 46 46 47 46 46 46 46 47
31 31 31 31 31 32 32 32 33 34 35 36 36 37 37 38 38 38 38 39 40 39 39 39 40 41 42 43 43 44 45 46 45 45 45 45 46 47 47 47 46 46 46
30 31 31 31 31 31 31 32 33 34 35 36 36 36 37 37 38 38 38 39 39 39 40 40 39 39 41 43 44 44 44 45 46 46 46 46 46 47 47 48 47 46 46
30 30 30 30 30 30 31 32 33 34 35 36 37 37 37 38 38 38 38 38 39 40 40 40 40 40 41 42 43 44 44 44 45 46 46 46 46 46 46 47 47 47 46
29 29 30 30 30 30 31 32 32 33 34 35 36 37 38 38 38 39 39 38 38 38 39 39 39 39 40 41 41 42 43 43 44 45 45 45 45 45 46 46 46 46 46
28 29 29 30 30 31 31 32 32 32 33 34 34 35 36 37 37 38 38 38 38 38 39 39 40 40 40 40 41 41 41 42 43 44 44 44 44 44 45 45 45 45 45
29 29 29 30 30 31 31 32 32 32 33 33 34 34 35 35 36 37 38 38 39 39 39 40 40 40 40 40 40 41 41 41 41 42 43 43 43 44 44 45 45 44 44
30 30 30 30 30 30 31 31 32 32 33 33 33 34 34 34 35 35 36 37 38 39 39 39 39 39 39 40 39 39 40 40 40 41 42 43 43 43 43 43 43 43 43
30 30 30 30 30 30 31 32 32 33 33 33 33 34 34 34 35 35 35 36 36 37 37 38 38 38 38 38 38 38 39 40 40 41 41 40 40 41 42 42 41 42 42
30 30 30 30 30 31 31 31 32 32 33 33 33 34 34 33 34 35 35 35 35 35 36 37 37 37 38 38 38 39 39 39 40 39 40 39 40 40 40 41 41 41 41
30 30 31 31 31 31 31 31 32 32 33 33 34 34 34 34 34 34 35 35 35 36 36 36 37 37 38 38 38 38 39 39 39 39 39 39 39 40 40 40 40 40 39
31 31 31 31 31 31 32 32 32 33 33 34 34 34 34 34 34 34 34 35 35 35 36 36 37 37 37 38 38 38 39 39 38 38 38 39 40 40 40 39 39 38 37
31 31 31 30 31 31 31 32 32 32 32 33 33 33 33 33 33 33 33 34 35 35 35 35 36 37 37 37 38 38 37 37 38 38 38 39 39 38 38 38 38 37 37
31 31 31 31 31 31 31 31 31 31 32 32 32 31 32 32 32 32 32 33 34 34 34 35 35 36 36 36 36 35 35 35 36 36 36 36 36 36 36 36 36 35 34
32 32 31 31 30 30 30 31 31 31 31 32 32 31 32 32 32 32 33 33 33 34 34 34 35 35 34 34 34 34 33 33 34 34 34 34 34 34 34 34 34 33 32
31 31 31 31 31 31 31 31 31 31 32 32 32 32 32 32 32 32 33 33 34 35 34 34 34 33 33 33 34 34 33 33 33 32 32 32 32 32 33 33 32 31 32
31 31 32 31 31 31 31 31 31 31 31 31 31 31 32 32 32 32 33 34 35 35 34 33 33 33 33 33 33 33 33 32 32 31 31 31 31 31 31 31 31 30 31
31 31 31 31 31 31 31 30 30 30 30 31 31 31 31 31 31 32 33 33 34 34 33 32 32 32 32 32 32 33 32 32 31 30 30 29 29 30 30 30 30 29 29
30 30 30 31 31 31 31 30 30 30 30 31 30 31 31 31 31 32 32 32 32 32 32 32 32 32 32 31 31 31 31 31 30 29 29 28 28 29 29 29 28 28 28
29 29 30 30 30 31 31 31 30 31 31 31 31 31 31 31 31 31 31 31 32 32 32 31 31 30 30 29 29 29 29 28 28 27 27 27 26 26 26 26 26 26 26
29 29 29 29 29 30 30 30 31 31 31 30 30 30 30 30 30 31 31 31 31 31 31 31 30 29 28 28 27 27 26 26 26 26 25 24 24 23 24 25 25 25 25
28 28 28 27 27 28 28 29 30 30 30 30 29 30 30 30 29 29 28 28 29 29 29 28 28 27 26 26 25 25 25 24 23 22 22 21 21 21 22 22 22 22 22
Wind_Direction
259 260 261 261 262 261 260 259 257 257 258 259 260 262 264 265 267 266 265 265 265 265 266 267 267 268 268 269 269 269 270 269 269 269 269 269 270 270 271 271 271 271 270
259 260 261 262 263 262 261 260 258 258 258 259 260 262 264 265 266 266 264 266 267 267 267 267 267 268 269 269 270 271 270 269 269 269 269 269 269 269 270 270 271 271 271
262 262 263 263 264 263 261 260 259 259 259 261 262 263 265 266 267 267 267 267 267 268 268 268 269 269 270 270 270 271 271 270 270 270 269 269 268 268 269 270 271 271 271
263 264 264 264 264 264 262 260 260 260 260 261 263 264 264 266 267 268 268 268 268 269 270 269 269 269 269 270 271 272 272 271 271 271 271 270 269 268 268 268 270 271 272
264 265 265 265 265 264 263 262 261 261 261 262 263 264 264 266 267 267 267 268 269 270 270 271 270 271 271 271 271 272 272 272 272 271 271 270 270 270 270 269 269 271 272
264 265 265 266 266 265 264 263 263 262 263 264 265 265 265 266 266 266 267 269 270 270 271 272 272 272 272 271 272 272 272 272 271 271 272 272 272 272 271 270 271 271 272
265 266 266 266 266 266 264 264 264 264 264 265 266 265 266 267 267 267 267 269 269 270 271 273 273 274 273 273 273 273 273 272 271 272 272 273 274 274 273 272 272 272 272
265 265 266 265 265 265 265 265 265 266 266 266 266 266 266 267 267 268 269 270 271 272 273 274 275 275 276 275 274 274 273 273 273 273 273 273 273 274 273 273 273 273 273
267 266 266 266 266 266 267 267 268 268 267 267 266 266 267 268 269 269 270 271 271 272 273 274 275 276 277 277 277 275 274 274 274 274 273 273 273 273 273 274 274 274 274
267 267 267 267 267 267 267 268 269 269 268 268 268 268 268 269 269 270 270 271 272 273 274 274 275 277 278 279 278 277 277 275 275 274 273 273 273 274 274 274 274 275 275
267 267 267 268 269 269 269 268 268 269 269 269 268 268 269 271 271 271 271 271 272 273 274 274 275 277 278 279 279 279 278 278 276 274 273 273 273 274 274 273 273 274 275
268 268 267 268 269 270 270 268 268 268 269 269 269 269 270 271 272 272 272 272 273 273 274 274 276 277 278 279 279 280 280 279 278 275 273 273 274 274 273 273 273 274 275
268 268 268 268 269 270 271 270 269 269 269 270 270 270 271 272 273 272 273 273 274 274 274 274 276 276 277 278 279 279 280 279 279 277 275 274 274 274 274 273 273 274 275
267 268 268 268 269 270 270 271 272 271 271 270 271 271 272 273 273 273 273 273 274 275 275 276 277 277 277 278 279 279 279 280 278 277 275 274 273 274 274 274 274 275 275
268 268 267 268 269 269 270 271 271 272 272 271 272 272 272 272 273 273 273 273 275 276 277 278 278 278 278 278 279 280 280 280 278 276 275 274 274 274 274 274 275 276 276
267 267 267 268 269 269 271 271 271 271 272 271 272 272 272 272 274 274 275 275 276 277 278 279 279 280 279 280 280 281 280 280 278 276 274 274 273 274 273 273 275 276 276
267 266 267 268 268 269 270 271 272 273 273 273 273 272 272 272 274 275 275 275 277 278 279 280 280 280 281 281 282 282 282 282 279 277 275 274 273 272 272 272 273 274 274
267 266 267 268 268 269 270 271 272 273 273 273 273 273 272 273 274 275 276 277 278 280 281 282 281 282 282 282 282 283 284 284 281 279 278 276 274 272 272 271 272 273 272
267 266 266 268 268 269 269 270 271 272 272 273 273 273 273 274 275 275 275 277 279 281 282 283 283 282 282 282 282 283 285 284 283 282 280 278 274 273 273 272 272 272 271
268 266 265 266 267 269 270 271 271 271 272 273 273 273 274 274 275 276 276 277 279 281 282 283 283 282 281 282 282 283 284 284 283 282 281 279 276 273 272 273 272 272 271
269 267 265 266 268 269 270 272 272 271 272 272 273 274 274 275 276 277 277 278 280 282 283 284 284 283 282 283 283 284 283 283 282 281 281 278 276 274 273 273 272 272 271
270 269 267 267 269 270 271 271 271 271 272 273 273 274 276 276 276 278 279 280 281 282 282 283 283 284 283 283 284 285 284 284 282 281 280 278 276 275 274 272 271 271 270
271 270 269 268 269 270 271 271 271 272 272 272 274 275 276 278 278 279 280 280 280 280 281 283 283 284 283 283 285 285 284 283 282 281 280 278 276 275 274 272 271 270 269
269 270 270 270 270 271 271 271 272 272 273 273 275 277 278 278 279 280 281 279 279 280 281 282 283 283 283 282 284 285 285 283 280 279 280 278 277 275 273 271 270 270 269
269 271 271 270 270 271 271 271 272 273 273 275 277 278 279 279 280 280 280 280 279 281 281 282 283 283 282 281 281 282 283 284 282 280 280 278 275 273 271 271 271 271 270
271 271 271 270 270 271 271 272 272 273 274 276 278 279 280 280 280 279 279 279 280 281 281 283 283 283 282 281 281 282 282 284 284 283 280 277 276 273 272 271 271 271 270
Height
5700 5701 5701 5702 5703 5703 5705 5706 5708 5710 5712 5714 5716 5717 5718 5720 5720 5721 5722 5722 5723 5723 5723 5724 5724 5725 5725 5725 5725 5725 5725 5725 5725 5726 5726 5726 5726 5726 5726 5726 5726 5726 5726
5691 5693 5694 5694 5695 5695 5697 5698 5700 5701 5703 5705 5707 5708 5709 5711 5711 5711 5712 5712 5713 5713 5713 5714 5714 5715 5715 5715 5715 5715 5714 5714 5714 5715 5715 5716 5717 5716 5715 5715 5715 5715 5715
5684 5685 5686 5686 5687 5687 5688 5690 5691 5693 5694 5696 5697 5699 5700 5701 5703 5703 5703 5703 5703 5703 5703 5703 5704 5704 5704 5704 5704 5704 5704 5704 5703 5703 5703 5704 5705 5705 5706 5705 5704 5704 5704
5675 5676 5678 5678 5679 5679 5680 5681 5682 5684 5685 5687 5688 5690 5691 5692 5693 5693 5693 5693 5693 5693 5693 5693 5693 5693 5693 5694 5693 5693 5693 5693 5693 5692 5692 5692 5692 5693 5694 5695 5693 5693 5692
5668 5669 5670 5670 5671 5671 5672 5673 5674 5675 5677 5678 5679 5680 5682 5682 5683 5683 5684 5684 5683 5683 5683 5683 5683 5683 5683 5683 5683 5682 5682 5682 5681 5681 5681 5681 5680 5680 5681 5683 5682 5681 5680
5660 5661 5662 5662 5663 5663 5664 5665 5666 5667 5668 5669 5670 5671 5672 5673 5673 5674 5674 5674 5674 5673 5673 5673 5673 5673 5673 5672 5672 5671 5671 5670 5670 5670 5669 5669 5669 5669 5669 5669 5670 5669 5669
5652 5653 5654 5654 5655 5655 5656 5657 5657 5658 5659 5660 5661 5662 5662 5663 5664 5664 5664 5664 5664 5664 5664 5663 5663 5663 5662 5661 5661 5660 5660 5659 5659 5658 5658 5658 5657 5657 5656 5656 5656 5657 5657
5644 5645 5645 5646 5647 5647 5648 5649 5649 5650 5650 5651 5652 5652 5652 5653 5653 5654 5654 5654 5654 5654 5654 5653 5653 5652 5651 5650 5649 5649 5648 5648 5647 5647 5647 5646 5645 5645 5644 5644 5643 5644 5645
5636 5637 5637 5638 5638 5639 5640 5640 5641 5641 5641 5641 5642 5642 5643 5643 5643 5643 5643 5644 5644 5644 5643 5643 5642 5642 5641 5640 5639 5638 5637 5637 5636 5635 5635 5634 5634 5633 5632 5631 5631 5631 5632
5628 5628 5629 5629 5630 5631 5631 5631 5632 5632 5632 5632 5633 5633 5633 5633 5633 5633 5633 5633 5633 5633 5633 5633 5632 5631 5630 5629 5628 5627 5626 5625 5624 5623 5623 5622 5622 5621 5620 5619 5619 5618 5619
5620 5620 5620 5621 5621 5622 5622 5622 5623 5623 5623 5623 5623 5623 5623 5623 5623 5623 5623 5623 5623 5623 5622 5622 5621 5621 5620 5618 5617 5616 5615 5614 5613 5612 5611 5610 5609 5609 5608 5608 5607 5607 5607
5612 5612 5612 5613 5613 5613 5613 5613 5614 5614 5614 5614 5614 5614 5614 5614 5614 5613 5613 5612 5612 5612 5612 5611 5611 5610 5609 5608 5606 5605 5604 5603 5602 5601 5600 5599 5597 5597 5596 5596 5596 5596 5595
5603 5604 5604 5604 5604 5605 5604 5604 5605 5605 5605 5605 5605 5605 5605 5605 5604 5604 5603 5602 5602 5602 5601 5601 5600 5599 5598 5597 5596 5595 5593 5592 5591 5590 5588 5587 5586 5586 5585 5585 5585 5584 5584
5595 5595 5596 5596 5596 5596 5596 5596 5595 5595 5595 5595 5595 5595 5595 5595 5594 5594 5593 5593 5592 5592 5591 5591 5590 5589 5588 5586 5585 5584 5583 5581 5580 5578 5577 5577 5576 5575 5574 5574 5574 5573 5573
5586 5587 5587 5587 5587 5587 5587 5587 5587 5586 5586 5586 5586 5586 5586 5585 5585 5584 5584 5583 5583 5582 5581 5581 5580 5578 5577 5576 5574 5573 5572 5570 5568 5567 5566 5565 5565 5564 5564 5564 5563 5563 5562
5577 5578 5578 5578 5578 5578 5578 5577 5577 5577 5577 5576 5576 5576 5576 5576 5575 5575 5574 5573 5573 5572 5571 5570 5569 5568 5566 5565 5563 5562 5560 5558 5557 5555 5555 5554 5553 5553 5553 5552 5552 5552 5551
5568 5569 5569 5569 5569 5569 5568 5568 5568 5567 5567 5567 5567 5566 5566 5566 5565 5565 5564 5564 5563 5562 5561 5560 5559 5557 5555 5554 5552 5550 5549 5547 5545 5544 5543 5543 5542 5542 5541 5541 5541 5541 5540
5559 5559 5560 5560 5560 5560 5560 5559 5559 5559 5558 5558 5558 5557 5557 5557 5556 5555 5555 5554 5553 5552 5551 5550 5548 5546 5545 5543 5541 5539 5538 5536 5534 5533 5532 5531 5531 5531 5531 5531 5531 5531 5530
5549 5550 5550 5551 5551 5550 5550 5550 5550 5550 5549 5549 5548 5548 5547 5547 5546 5546 5545 5544 5543 5542 5541 5539 5538 5536 5534 5532 5531 5529 5527 5526 5524 5523 5522 5521 5521 5521 5520 5521 5521 5521 5521
5540 5540 5541 5541 5541 5541 5541 5541 5541 5540 5540 5539 5539 5538 5538 5538 5537 5536 5536 5534 5533 5532 5531 5529 5527 5526 5524 5522 5521 5519 5518 5516 5515 5514 5512 5511 5511 5510 5510 5511 5512 5512 5512
5530 5530 5531 5532 5532 5532 5532 5532 5532 5531 5531 5530 5530 5529 5528 5528 5527 5527 5526 5525 5524 5522 5521 5519 5518 5516 5514 5513 5511 5509 5508 5506 5505 5504 5503 5502 5501 5501 5501 5501 5502 5503 5503
5521 5521 5521 5522 5522 5522 5523 5523 5523 5522 5521 5521 5521 5520 5519 5519 5518 5517 5516 5515 5513 5512 5511 5509 5508 5506 5504 5503 5501 5499 5498 5496 5495 5495 5494 5493 5492 5492 5492 5492 5493 5494 5494
5512 5512 5512 5513 5513 5513 5513 5514 5514 5513 5513 5512 5512 5511 5510 5510 5509 5508 5506 5505 5503 5502 5501 5500 5498 5496 5495 5493 5491 5489 5488 5487 5486 5485 5485 5484 5483 5483 5483 5484 5484 5485 5485
5503 5503 5503 5504 5504 5504 5504 5504 5504 5504 5503 5503 5503 5502 5501 5501 5499 5498 5497 5495 5494 5493 5492 5490 5489 5487 5485 5484 5482 5481 5479 5478 5477 5476 5475 5475 5474 5475 5475 5476 5476 5477 5477
5495 5495 5495 5495 5495 5495 5495 5495 5495 5495 5495 5494 5494 5493 5492 5491 5490 5489 5488 5486 5485 5483 5482 5481 5479 5478 5477 5475 5474 5472 5471 5470 5469 5468 5467 5467 5467 5467 5468 5469 5469 5470 5470
5486 5486 5486 5487 5487 5487 5487 5486 5486 5486 5486 5486 5485 5484 5483 5482 5481 5480 5479 5477 5476 5475 5473 5471 5470 5469 5468 5466 5465 5464 5463 5462 5461 5460 5460 5460 5460 5461 5461 5462 5462 5463 5463